Weather History for KDFI - March, 2013

Change the Weather History Date:

Tuesday, March 19, 2013

  Actual Average (KTOL) Record (KTOL)
Temperature  
Mean Temperature 30 °F 39 °F  
Max Temperature 35 °F 48 °F 81 °F (2012)
Min Temperature 24 °F 29 °F 8 °F (1923)
Degree Days  
Heating Degree Days 36 26  
Month to date heating degree days 564  
Since 1 July heating degree days 5140  
Cooling Degree Days 0 0  
Month to date cooling degree days 0  
Year to date cooling degree days 0  
Moisture  
Dew Point 16 °F    
Average Humidity 59    
Maximum Humidity 76    
Minimum Humidity 46    
Precipitation  
Precipitation 0.00 in 0.08 in - ()
Month to date precipitation 1.44  
Year to date precipitation 5.56  
Snow  
Snow 0.00 in 0.10 in - ()
Month to date snowfall 4.1  
Since 1 July snowfall 34.6  
Snow Depth -    
Sea Level Pressure  
Sea Level Pressure 29.88 in    
Wind  
Wind Speed 13 mph (WSW)    
Max Wind Speed 21 mph    
Max Gust Speed 33 mph    
Visibility 10 miles    
Events Snow    
T = Trace of Precipitation, MM = Missing Value Source: NWS Daily Summary

Daily Weather History Graph

Daily Weather History Graph

Search for Another Location

Airport or City:

Trip Planner

Search our weather history database for the weather conditions in past years. The results will help you decide how hot, cold, wet, or windy it might be!

Date:

Astronomy

Mar. 19, 2013 Rise Set
Actual Time 7:42 AM EDT 7:49 PM EDT
Civil Twilight 7:14 AM EDT 8:16 PM EDT
Nautical Twilight 6:42 AM EDT 8:48 PM EDT
Astronomical Twilight 6:09 AM EDT 9:21 PM EDT
Moon 12:28 PM EDT (3/19) 2:38 AM EDT (3/19)
Length of Visible Light 13h 01m
Length of Day
12h 06m
Waxing Crescent, 49% of the Moon is Illuminated
Mar 19
Waxing Crescent
Mar 19
First Quarter
Mar 27
Full
Apr 3
Last Quarter
Apr 10
New

Hourly Weather History & Observations

Time (EDT) Temp. Windchill Dew Point Humidity Pressure Visibility Wind Dir Wind Speed Gust Speed Precip Events Conditions
12:35 AM 35.6 °F 27.1 °F 28.4 °F 75% 29.71 in 10.0 mi WSW 12.7 mph 23.0 mph N/A   Mostly Cloudy
12:53 AM 35.1 °F 28.6 °F 28.0 °F 76% 29.73 in 10.0 mi WSW 8.1 mph 18.4 mph N/A   Overcast
1:53 AM 32.0 °F 22.1 °F 23.0 °F 69% 29.75 in 10.0 mi West 13.8 mph 26.5 mph N/A   Overcast
2:53 AM 30.0 °F 20.5 °F 21.0 °F 69% 29.77 in 10.0 mi WSW 11.5 mph 23.0 mph N/A   Overcast
3:53 AM 28.0 °F 17.5 °F 17.1 °F 63% 29.79 in 10.0 mi West 12.7 mph 24.2 mph N/A   Overcast
4:53 AM 26.1 °F 14.0 °F 15.1 °F 63% 29.81 in 10.0 mi WSW 15.0 mph 27.6 mph N/A   Overcast
5:21 AM 24.8 °F 14.0 °F 12.2 °F 59% 29.79 in 10.0 mi WSW 11.5 mph 26.5 mph N/A   Mostly Cloudy
5:53 AM 25.0 °F 13.1 °F 15.1 °F 66% 29.81 in 10.0 mi WSW 13.8 mph 20.7 mph N/A   Overcast
6:53 AM 24.1 °F 13.1 °F 14.0 °F 65% 29.85 in 10.0 mi West 11.5 mph 25.3 mph N/A   Overcast
7:53 AM 25.0 °F 14.2 °F 17.1 °F 72% 29.84 in 7.0 mi WSW 11.5 mph 23.0 mph 0.00 in Snow Light Snow
8:46 AM 24.8 °F 12.4 °F 14.0 °F 64% 29.82 in 10.0 mi WSW 15.0 mph 24.2 mph 0.00 in   Mostly Cloudy
8:53 AM 24.1 °F 12.0 °F 14.0 °F 65% 29.85 in 10.0 mi WSW 13.8 mph 25.3 mph 0.00 in   Overcast
9:08 AM 24.8 °F 11.9 °F 12.2 °F 59% 29.82 in 10.0 mi WSW 16.1 mph 28.8 mph N/A   Overcast
9:53 AM 25.0 °F 10.6 °F 12.9 °F 60% 29.86 in 9.0 mi West 20.7 mph 32.2 mph 0.00 in   Overcast
10:53 AM 25.0 °F 12.6 °F 12.9 °F 60% 29.87 in 9.0 mi WSW 15.0 mph 28.8 mph 0.00 in   Overcast
11:45 AM 26.6 °F 14.7 °F 15.8 °F 64% 29.86 in 8.0 mi WSW 15.0 mph 25.3 mph 0.00 in Snow Light Snow
11:53 AM 26.1 °F 14.0 °F 16.0 °F 66% 29.89 in 6.0 mi WSW 15.0 mph 24.2 mph 0.00 in Snow Light Snow
12:12 PM 26.6 °F 17.5 °F 15.8 °F 64% 29.86 in 7.0 mi West 9.2 mph 20.7 mph 0.00 in Snow Light Snow
12:53 PM 28.0 °F 17.0 °F 14.0 °F 56% 29.89 in 9.0 mi West 13.8 mph 28.8 mph 0.00 in Snow Light Snow
1:53 PM 28.9 °F 16.5 °F 14.0 °F 54% 29.91 in 10.0 mi West 18.4 mph 32.2 mph 0.00 in   Overcast
2:53 PM 30.0 °F 19.5 °F 15.1 °F 54% 29.94 in 9.0 mi West 13.8 mph 32.2 mph 0.00 in   Overcast
3:53 PM 32.0 °F 21.2 °F 15.1 °F 50% 29.94 in 10.0 mi West 16.1 mph 26.5 mph N/A   Overcast
4:53 PM 33.1 °F 21.5 °F 15.1 °F 48% 29.95 in 10.0 mi WSW 19.6 mph 33.4 mph N/A   Overcast
5:53 PM 34.0 °F 26.6 °F 15.1 °F 46% 29.96 in 10.0 mi West 9.2 mph 31.1 mph N/A   Mostly Cloudy
6:53 PM 34.0 °F 25.0 °F 15.1 °F 46% 29.97 in 10.0 mi West 12.7 mph 25.3 mph N/A   Clear
7:53 PM 33.1 °F 24.4 °F 15.1 °F 48% 29.99 in 10.0 mi West 11.5 mph 21.9 mph N/A   Clear
8:53 PM 32.0 °F 24.8 °F 15.1 °F 50% 30.01 in 10.0 mi West 8.1 mph 16.1 mph N/A   Clear
9:53 PM 32.0 °F 25.6 °F 15.1 °F 50% 30.01 in 10.0 mi West 6.9 mph - N/A   Clear
10:53 PM 32.0 °F 23.6 °F 15.1 °F 50% 30.02 in 10.0 mi West 10.4 mph 17.3 mph N/A   Clear
11:53 PM 30.9 °F 25.2 °F 15.1 °F 52% 30.02 in 10.0 mi West 5.8 mph - N/A   Clear